When you browse on this site, cookies collect data to enhance your experience and personalize the content and advertising you see.
Visit our Privacy Policy to learn more. By continuing to use the site, you agree to this use of cookies and data.
  • In Deutschland
  • Länderverzeichnis
  • Für 7 Tage
  • Wassertemperatur
  • Satellitenkarten
  • Wetterkarte
  • Widgets
  • user-avatar
    Anmelden

    Stündliche Wetter Sylchet

    Heute, 19 Juli, Freitag

    Zeit Temperatur Niederschläge Wind Luftdruck Luftfeuchtigkeit
    00:00 +30°C° 0 mm 2 m/S 751 mmHg 77%
    01:00 +29°C° 0 mm 2 m/S 751 mmHg 78%
    02:00 +29°C° 0 mm 2 m/S 750 mmHg 80%
    03:00 +29°C° 0 mm 1 m/S 750 mmHg 82%
    04:00 +29°C° 0.3 mm 1 m/S 750 mmHg 84%
    05:00 +29°C° 0.3 mm 1 m/S 751 mmHg 86%
    06:00 +29°C° 0 mm 1 m/S 752 mmHg 89%
    07:00 +29°C° 0.7 mm 1 m/S 751 mmHg 87%
    08:00 +30°C° 0.7 mm 1 m/S 751 mmHg 84%
    09:00 +31°C° 0.7 mm 1 m/S 751 mmHg 82%
    10:00 +32°C° 0 mm 1 m/S 751 mmHg 74%
    11:00 +34°C° 0 mm 1 m/S 751 mmHg 67%
    12:00 +35°C° 0 mm 1 m/S 752 mmHg 64%
    13:00 +35°C° 0 mm 1 m/S 751 mmHg 62%
    14:00 +35°C° 0 mm 1 m/S 750 mmHg 61%
    15:00 +36°C° 0 mm 1 m/S 749 mmHg 59%
    16:00 +35°C° 0 mm 1 m/S 749 mmHg 61%
    17:00 +36°C° 0 mm 2 m/S 749 mmHg 64%
    18:00 +35°C° 0 mm 2 m/S 749 mmHg 67%
    19:00 +34°C° 0 mm 2 m/S 750 mmHg 70%
    20:00 +32°C° 0 mm 2 m/S 750 mmHg 73%
    21:00 +31°C° 0 mm 3 m/S 751 mmHg 76%
    22:00 +31°C° 0.3 mm 3 m/S 751 mmHg 79%
    23:00 +30°C° 0.3 mm 3 m/S 752 mmHg 82%

    Morgen, 20 Juli, Samstag

    Zeit Temperatur Niederschläge Wind Luftdruck Luftfeuchtigkeit
    00:00 +29°C° 0.3 mm 3 m/S 752 mmHg 84%
    01:00 +29°C° 0.2 mm 3 m/S 752 mmHg 86%
    02:00 +29°C° 0.2 mm 2 m/S 752 mmHg 88%
    03:00 +29°C° 0.2 mm 2 m/S 751 mmHg 89%
    04:00 +29°C° 0.2 mm 2 m/S 752 mmHg 90%
    05:00 +29°C° 0.2 mm 1 m/S 752 mmHg 91%
    06:00 +29°C° 0.2 mm 1 m/S 752 mmHg 92%
    07:00 +30°C° 0.5 mm 1 m/S 752 mmHg 85%
    08:00 +32°C° 0.5 mm 1 m/S 753 mmHg 77%
    09:00 +33°C° 0.5 mm 1 m/S 753 mmHg 70%
    10:00 +35°C° 0.2 mm 2 m/S 753 mmHg 67%
    11:00 +36°C° 0.2 mm 2 m/S 752 mmHg 63%
    12:00 +36°C° 0.2 mm 2 m/S 752 mmHg 60%
    13:00 +37°C° 0 mm 2 m/S 751 mmHg 58%
    14:00 +37°C° 0 mm 3 m/S 751 mmHg 57%
    15:00 +38°C° 0 mm 3 m/S 750 mmHg 56%
    16:00 +37°C° 0.1 mm 3 m/S 750 mmHg 60%
    17:00 +36°C° 0.1 mm 2 m/S 750 mmHg 65%
    18:00 +35°C° 0.1 mm 2 m/S 750 mmHg 69%
    19:00 +34°C° 0.2 mm 2 m/S 750 mmHg 74%
    20:00 +33°C° 0.2 mm 3 m/S 751 mmHg 78%
    21:00 +31°C° 0.2 mm 3 m/S 751 mmHg 82%
    22:00 +30°C° 1 mm 3 m/S 752 mmHg 84%
    23:00 +30°C° 1 mm 3 m/S 752 mmHg 86%

    übermorgen, 21 Juli, Sonntag

    Zeit Temperatur Niederschläge Wind Luftdruck Luftfeuchtigkeit
    00:00 +29°C° 1 mm 3 m/S 752 mmHg 88%
    01:00 +29°C° 0.8 mm 3 m/S 752 mmHg 89%
    02:00 +29°C° 0.8 mm 3 m/S 751 mmHg 90%
    03:00 +28°C° 0.8 mm 3 m/S 751 mmHg 92%
    04:00 +28°C° 1.4 mm 3 m/S 751 mmHg 92%
    05:00 +28°C° 1.4 mm 2 m/S 752 mmHg 93%
    06:00 +28°C° 1.4 mm 2 m/S 752 mmHg 93%
    07:00 +30°C° 0.7 mm 3 m/S 752 mmHg 88%
    08:00 +31°C° 0.7 mm 3 m/S 752 mmHg 83%
    09:00 +33°C° 0.7 mm 3 m/S 752 mmHg 78%
    10:00 +34°C° 1 mm 3 m/S 752 mmHg 74%
    11:00 +35°C° 1 mm 3 m/S 752 mmHg 69%
    12:00 +36°C° 1 mm 3 m/S 752 mmHg 65%
    13:00 +36°C° 0.4 mm 3 m/S 751 mmHg 64%
    14:00 +37°C° 0.4 mm 3 m/S 750 mmHg 62%
    15:00 +37°C° 0.4 mm 3 m/S 750 mmHg 61%
    16:00 +36°C° 0.5 mm 3 m/S 750 mmHg 65%
    17:00 +35°C° 0.5 mm 2 m/S 750 mmHg 69%
    18:00 +35°C° 0.5 mm 2 m/S 750 mmHg 74%
    19:00 +32°C° 0.9 mm 2 m/S 750 mmHg 78%
    20:00 +31°C° 0.9 mm 2 m/S 751 mmHg 83%
    21:00 +30°C° 0.9 mm 3 m/S 751 mmHg 88%
    22:00 +29°C° 1.4 mm 3 m/S 751 mmHg 89%
    23:00 +29°C° 1.4 mm 3 m/S 751 mmHg 89%

    22 Juli, Montag

    Zeit Temperatur Niederschläge Wind Luftdruck Luftfeuchtigkeit
    00:00 +29°C° 1.4 mm 3 m/S 751 mmHg 90%
    01:00 +29°C° 1.2 mm 3 m/S 751 mmHg 91%
    02:00 +28°C° 1.2 mm 3 m/S 751 mmHg 92%
    03:00 +28°C° 1.2 mm 2 m/S 750 mmHg 93%
    04:00 +28°C° 1.1 mm 2 m/S 750 mmHg 92%
    05:00 +28°C° 1.1 mm 2 m/S 751 mmHg 92%
    06:00 +28°C° 1.1 mm 2 m/S 751 mmHg 91%
    07:00 +29°C° 1.9 mm 2 m/S 751 mmHg 90%
    08:00 +29°C° 1.9 mm 3 m/S 752 mmHg 89%
    09:00 +30°C° 1.9 mm 3 m/S 752 mmHg 87%
    10:00 +30°C° 2 mm 3 m/S 752 mmHg 85%
    11:00 +31°C° 2 mm 2 m/S 752 mmHg 83%
    12:00 +31°C° 2 mm 2 m/S 751 mmHg 80%
    13:00 +31°C° 2 mm 2 m/S 751 mmHg 82%
    14:00 +31°C° 2 mm 1 m/S 751 mmHg 83%
    15:00 +31°C° 2 mm 1 m/S 750 mmHg 84%
    16:00 +30°C° 1.1 mm 1 m/S 750 mmHg 86%
    17:00 +29°C° 1.1 mm 1 m/S 750 mmHg 87%
    18:00 +29°C° 1.1 mm 2 m/S 750 mmHg 89%
    19:00 +29°C° 0.7 mm 2 m/S 751 mmHg 89%
    20:00 +28°C° 0.7 mm 2 m/S 751 mmHg 90%
    21:00 +28°C° 0.7 mm 2 m/S 752 mmHg 90%
    22:00 +28°C° 1.1 mm 2 m/S 751 mmHg 91%
    23:00 +28°C° 1.1 mm 2 m/S 751 mmHg 91%

    23 Juli, Dienstag

    Zeit Temperatur Niederschläge Wind Luftdruck Luftfeuchtigkeit
    00:00 +28°C° 1.1 mm 2 m/S 751 mmHg 91%
    01:00 +28°C° 0.8 mm 2 m/S 751 mmHg 92%
    02:00 +27°C° 0.8 mm 2 m/S 750 mmHg 93%
    03:00 +27°C° 0.8 mm 2 m/S 750 mmHg 94%
    04:00 +27°C° 1 mm 2 m/S 750 mmHg 95%
    05:00 +27°C° 1 mm 2 m/S 750 mmHg 95%
    06:00 +27°C° 1 mm 2 m/S 750 mmHg 96%
    07:00 +27°C° 0.7 mm 2 m/S 751 mmHg 94%
    08:00 +28°C° 0.7 mm 2 m/S 751 mmHg 91%
    09:00 +28°C° 0.7 mm 2 m/S 752 mmHg 89%
    10:00 +30°C° 0.9 mm 2 m/S 751 mmHg 85%
    11:00 +31°C° 0.9 mm 2 m/S 751 mmHg 80%
    12:00 +32°C° 0.9 mm 2 m/S 751 mmHg 75%
    13:00 +32°C° 1.5 mm 2 m/S 750 mmHg 76%
    14:00 +32°C° 1.5 mm 2 m/S 750 mmHg 77%
    15:00 +32°C° 1.5 mm 2 m/S 749 mmHg 78%
    16:00 +31°C° 1.6 mm 2 m/S 749 mmHg 81%
    17:00 +30°C° 1.6 mm 2 m/S 749 mmHg 84%
    18:00 +30°C° 1.6 mm 2 m/S 750 mmHg 87%
    19:00 +29°C° 1.8 mm 2 m/S 750 mmHg 89%
    20:00 +29°C° 1.8 mm 3 m/S 751 mmHg 90%
    21:00 +28°C° 1.8 mm 3 m/S 751 mmHg 91%
    22:00 +28°C° 0.5 mm 3 m/S 751 mmHg 92%
    23:00 +28°C° 0.5 mm 2 m/S 751 mmHg 93%

    24 Juli, Mittwoch

    Zeit Temperatur Niederschläge Wind Luftdruck Luftfeuchtigkeit
    00:00 +27°C° 0.5 mm 2 m/S 751 mmHg 94%
    01:00 +27°C° 0.1 mm 2 m/S 751 mmHg 94%
    02:00 +27°C° 0.1 mm 2 m/S 750 mmHg 94%
    03:00 +27°C° 0.1 mm 2 m/S 750 mmHg 95%
    04:00 +27°C° 0 mm 2 m/S 750 mmHg 95%
    05:00 +27°C° 0 mm 2 m/S 750 mmHg 95%
    06:00 +27°C° 0 mm 2 m/S 750 mmHg 95%
    07:00 +27°C° 0.1 mm 2 m/S 751 mmHg 92%
    08:00 +28°C° 0.1 mm 2 m/S 751 mmHg 90%
    09:00 +29°C° 0.1 mm 2 m/S 751 mmHg 88%
    10:00 +29°C° 0.5 mm 2 m/S 751 mmHg 86%
    11:00 +30°C° 0.5 mm 2 m/S 751 mmHg 84%
    12:00 +30°C° 0.5 mm 2 m/S 750 mmHg 82%
    13:00 +31°C° 0.3 mm 2 m/S 750 mmHg 78%
    14:00 +32°C° 0.3 mm 2 m/S 749 mmHg 73%
    15:00 +33°C° 0.3 mm 1 m/S 748 mmHg 69%
    16:00 +32°C° 0.3 mm 1 m/S 748 mmHg 72%
    17:00 +32°C° 0.3 mm 1 m/S 748 mmHg 75%
    18:00 +32°C° 0.3 mm 1 m/S 748 mmHg 78%
    19:00 +31°C° 0.5 mm 2 m/S 749 mmHg 82%
    20:00 +30°C° 0.5 mm 2 m/S 750 mmHg 87%
    21:00 +28°C° 0.5 mm 3 m/S 750 mmHg 91%
    22:00 +28°C° 0.4 mm 2 m/S 750 mmHg 92%
    23:00 +28°C° 0.4 mm 2 m/S 750 mmHg 93%
    Mehr zeigen